User: anonymous   Login
Location: Alvediston
(51.0078°N, 2.0364°W)
Time: 08:25:06
(UTC+00:00)
Language:

STARLINK-1033 - Orbit

View from above orbital plane
View from above orbital plane
View from above satellite
View from above satellite

Ground track
Ground track

The orbit data is extracted from the following two-line orbital elements,

1 44738C 19074BA  20158.14804419  .00008675  00000-0  59396-3 0  1582
2 44738  52.9971 285.3042 0001196 107.7132  20.6147 15.05586951    19
Epoch (UTC): 06 June 2020 03:33:11
Eccentricity: 0.0001196
inclination: 52.9971°
perigee height: 549 km
apogee height: 550 km
right ascension of ascending node: 285.3042°
argument of perigee: 107.7132°
revolutions per day: 15.05586951
mean anomaly at epoch: 20.6147°
orbit number at epoch: 1

The dashed part of the orbit path shows where the satellite is in the earth's shadow,  

DLR